Location: Augirein
(42.9320°N, 0.9181°E)
Time: 18:20:31
(UTC+00:00)

Cosmos 2221 - Pass Details

Date: 20 June 2021
Orbit: 591 x 616 km, 82.5° (Epoch: 22 July)

Event Time Altitude Azimuth Distance (km) Brightness Sun altitude
Rises 01:58:22 0° 340° (NNW) 2,856 6.6 -18.1°
Reaches altitude 10° 02:00:49 10° 329° (NNW) 1,944 5.5 -17.9°
Maximum altitude 02:04:28 28° 271° (W) 1,131 3.6 -17.5°
Enters shadow 02:05:09 27° 254° (WSW) 1,166 3.6 -17.5°
